Knows.nl

Technical website intelligence, screenshots, and crawl history.

Full Index

Showing up to 100 newest rows before ID 5707365.

IDDomainStatusLast visitURL
5707346 linov.fr 200 2026-08-30 03:55:45 https://linov.fr/
5707331 static.freebody.co.kr 404 2026-08-30 03:54:39 https://static.freebody.co.kr/
5707328 www.xplorer.co.il 200 2026-08-30 03:53:09 https://www.xplorer.co.il/
5707326 handesaim.ariel.ac.il 200 2026-08-30 03:53:07 https://handesaim.ariel.ac.il/
5707317 clionadhcosmetics.com 200 2026-08-30 03:52:50 https://clionadhcosmetics.com/
5707315 api.digitaltrafficagency.com 200 2026-08-30 03:52:42 https://api.digitaltrafficagency.com/
5707297 motika.mk 200 2026-08-30 03:52:21 https://motika.mk/
5707292 ibmec.gupy.io 200 2026-08-30 03:52:18 https://ibmec.gupy.io/
5707288 www.momspornvideos.com 200 2026-09-01 23:42:49 https://www.momspornvideos.com/
5707279 snackattacknow.com 200 2026-08-30 03:49:30 https://snackattacknow.com/
5707278 readingtaxsolutions.com 200 2026-08-30 03:49:28 https://readingtaxsolutions.com/
5707277 www.udititax.com 200 2026-08-30 03:49:26 https://www.udititax.com/
5707276 tpofarm.com 200 2026-08-30 03:49:23 https://tpofarm.com/
5707275 linkedin.marketingenmasse.com 200 2026-08-30 03:49:22 https://linkedin.marketingenmasse.com/
5707274 marketingenmasse.com 200 2026-08-30 03:49:19 https://marketingenmasse.com/
5707263 findplus.ir 200 2026-08-30 03:48:59 https://findplus.ir/
5707253 pd.gov.uz 200 2026-08-30 03:48:04 https://pd.gov.uz/
5707248 starandshamrock.com 200 2026-08-30 03:46:11 https://starandshamrock.com/
5707245 linkgacor.win 200 2026-08-30 03:46:07 https://linkgacor.win/
5707244 konek.vip 200 2026-08-30 03:46:04 https://konek.vip/
5707228 vans-lager.mercedes-benz.hr 200 2026-08-30 03:43:42 https://vans-lager.mercedes-benz.hr/
5707227 lager.mercedes-benz.hr 200 2026-08-30 03:43:41 https://lager.mercedes-benz.hr/
5707222 lahjakortti.hotelepoque.fi 200 2026-08-30 03:43:35 https://lahjakortti.hotelepoque.fi/
5707219 www.citytaxijeppis.fi 200 2026-08-30 03:43:34 https://www.citytaxijeppis.fi/
5707214 unvestidorconideas.blogspot.com 200 2026-08-30 03:43:30 https://unvestidorconideas.blogspot.com/
5707202 www.pentaxforums.com 200 2026-08-30 03:42:23 https://www.pentaxforums.com/
5707201 www.canonforums.com 200 2026-08-30 03:42:22 https://www.canonforums.com/
5707200 www.nikonforums.com 200 2026-08-30 03:42:19 https://www.nikonforums.com/
5707197 www.samayviajes.com 200 2026-08-30 03:42:01 https://www.samayviajes.com/
5707194 ytuqueplanes.com 200 2026-08-30 03:41:59 http://ytuqueplanes.com/
5707192 www.viajeselcorteingles.com.co 200 2026-08-30 03:41:51 https://www.viajeselcorteingles.com.co/
5707191 www.viajeselcorteingles.com.mx 200 2026-08-30 03:41:50 https://www.viajeselcorteingles.com.mx/
5707190 www.viajeselcorteingles.cl 200 2026-08-30 03:41:48 https://www.viajeselcorteingles.cl/
5707186 www.croixture.com 200 2026-08-30 03:41:27 https://www.croixture.com/
5707181 dif.pueblacapital.gob.mx 200 2026-08-30 03:41:25 https://dif.pueblacapital.gob.mx/
5707176 advstudio.com 200 2026-08-30 03:41:16 https://advstudio.com/
5707168 www.b2winc.com 200 2026-08-30 03:40:39 https://www.b2winc.com/
5707166 danji.cr173.com 200 2026-08-30 03:39:21 https://danji.cr173.com/
5707162 www.tiegu.com 200 2026-08-30 03:39:11 https://www.tiegu.com/
5707158 www.chicklitclub.com 200 2026-08-30 03:38:09 https://www.chicklitclub.com/
5707142 www.abhamalpani.com 404 2026-08-30 03:37:51 http://www.abhamalpani.com/
5707141 abhamalpani.com 404 2026-08-30 03:37:50 http://abhamalpani.com/
5707140 www.agriculturejournals.cz 200 2026-08-30 03:37:49 https://www.agriculturejournals.cz/
5707138 www.actavia.cz 200 2026-08-30 03:37:48 https://www.actavia.cz/
5707137 www.cazv.cz 200 2026-08-30 03:37:48 http://www.cazv.cz/
5707135 www.cazv.cz 200 2026-08-30 03:37:39 https://www.cazv.cz/
5707128 us1.getyooz.com 200 2026-08-30 03:37:20 https://us1.getyooz.com/
5707127 careers.getyooz.com 200 2026-08-30 03:37:19 https://careers.getyooz.com/
5707126 help.getyooz.com 200 2026-08-30 03:37:19 https://help.getyooz.com/
5707123 conseils.org 200 2026-08-30 03:37:15 https://conseils.org/
5707111 p.veoci.com 404 2026-08-30 03:36:51 https://p.veoci.com/
5707107 shop.icon4x4.com 200 2026-08-30 03:36:48 https://shop.icon4x4.com/
5707100 caterme.ru 200 2026-08-30 03:36:44 https://caterme.ru/
5707099 www.amazon.be 200 2026-08-30 03:36:31 https://www.amazon.be/
5707097 www.baloise.be 200 2026-08-30 03:36:31 https://www.baloise.be/
5707092 www.cannes-france.com 200 2026-08-30 03:36:29 https://www.cannes-france.com/
5707091 anlye.tumblr.com 200 2026-08-30 03:36:28 https://anlye.tumblr.com/
5707087 anlye.com 200 2026-08-30 03:36:26 https://anlye.com/
5707086 www.recyclingbins.co.uk 200 2026-08-30 03:36:22 https://www.recyclingbins.co.uk/
5707080 www.breedme.com 200 2026-08-30 03:36:15 https://www.breedme.com/
5707078 www.playboyclub.com 200 2026-08-30 03:36:12 https://www.playboyclub.com/
5707077 uk.oklute.com 200 2026-08-30 03:36:11 https://uk.oklute.com/
5707076 hi.oklute.com 200 2026-08-30 03:36:10 https://hi.oklute.com/
5707075 au.oklute.com 200 2026-08-30 03:36:08 https://au.oklute.com/
5707074 uchile.cl 200 2026-08-30 03:35:40 http://uchile.cl/
5707073 100pro.org 200 2026-08-30 03:35:09 https://100pro.org/
5707072 congressallianz.de 200 2026-08-30 03:45:48 https://congressallianz.de/
5707070 www.evvc.org 200 2026-08-30 03:34:53 https://www.evvc.org/
5707058 belilokal.thestar.com.my 200 2026-08-30 03:34:38 https://belilokal.thestar.com.my/
5707057 dengar.suria.my 200 2026-08-30 03:34:36 https://dengar.suria.my/
5707052 www.realtorscare.ca 200 2026-08-30 03:34:07 https://www.realtorscare.ca/
5707042 nabokovbooks.ru 200 2026-08-30 03:33:17 http://nabokovbooks.ru/
5707041 drimsim.app.link 200 2026-08-30 03:33:14 https://drimsim.app.link/
5707039 watch.naturalhealth365programs.com 200 2026-08-30 03:33:07 https://watch.naturalhealth365programs.com/
5707037 interpretinggenetics.com 404 2026-08-30 03:32:50 https://interpretinggenetics.com/
5707036 reclaimyourbodysummit.com 404 2026-08-30 03:32:49 https://reclaimyourbodysummit.com/
5707035 overcomechroniclyme.com 404 2026-08-30 03:32:49 https://overcomechroniclyme.com/
5707025 www.paystatementonline.com 200 2026-08-30 03:32:29 https://www.paystatementonline.com/
5707022 bestgugo3.xyz 200 2026-09-01 18:12:47 https://bestgugo3.xyz/
5707021 bettingoffer.xyz 200 2026-08-30 03:32:11 https://bettingoffer.xyz/
5707015 tordenvejr.tumblr.com 200 2026-08-30 03:28:23 https://tordenvejr.tumblr.com/
5707014 avaazangell.tumblr.com 200 2026-08-30 03:28:22 https://avaazangell.tumblr.com/
5707013 morallyambiguous.tumblr.com 200 2026-08-30 03:28:21 https://morallyambiguous.tumblr.com/
5707007 support.mi.medical.canon 200 2026-08-30 03:27:33 https://support.mi.medical.canon/
5707006 global.medical.canon 200 2026-08-30 03:27:32 https://global.medical.canon/
5707005 portal.myvitrea.com 200 2026-08-30 03:27:29 https://portal.myvitrea.com/
5707004 www.mi.medical.canon 200 2026-08-30 03:27:28 https://www.mi.medical.canon/
5707003 www.slidetheme.ir 200 2026-08-30 03:26:43 http://www.slidetheme.ir/
5706993 vavadacasinopl.pl 200 2026-08-30 03:26:35 https://vavadacasinopl.pl/
5706989 recadoseglitters.com 200 2026-08-30 03:26:33 https://recadoseglitters.com/
5706987 buyskaipravda.ru 200 2026-08-30 03:26:28 https://buyskaipravda.ru/
5706986 susnov.ru 403 2026-08-30 03:26:25 https://susnov.ru/
5706985 xn--80aaafcmcb6evaidf6r.xn--p1ai 200 2026-08-30 03:26:25 https://xn--80aaafcmcb6evaidf6r.xn--p1ai/
5706984 wetlkrai.ru 200 2026-08-30 03:26:23 https://wetlkrai.ru/
5706983 gpko-avangard.ru 200 2026-08-30 03:26:21 https://gpko-avangard.ru/
5706976 armagh.space 200 2026-08-30 03:26:17 https://armagh.space/
5706961 contact.cloudtweaks.com 200 2026-08-30 03:26:01 https://contact.cloudtweaks.com/
5706946 www.sipuodiremorte.it 200 2026-08-30 03:25:27 https://www.sipuodiremorte.it/
5706944 www.agenteprovocador.es 200 2026-08-30 03:25:21 https://www.agenteprovocador.es/
5706941 iris.uniroma1.it 403 2026-08-30 03:25:21 https://iris.uniroma1.it/